Time,TemperatureF,DewpointF,PressureIn,WindDirection,WindDirectionDegrees,WindSpeedMPH,WindSpeedGustMPH,Humidity,HourlyPrecipIn,Conditions,Clouds,dailyrainin,SoftwareType,DateUTC
2013-06-29 00:01:00,70.0,61.0,30.07,NNE,25,3.0,-999.0,73,-99.99,,,-99.99,,2013-06-29 05:01:00,
2013-06-29 00:10:00,70.0,61.0,30.06,North,0,0.0,-999.0,73,-99.99,,,-99.99,,2013-06-29 05:10:00,
2013-06-29 00:21:00,70.0,61.0,30.06,North,0,0.0,-999.0,73,-99.99,,,-99.99,,2013-06-29 05:21:00,
2013-06-29 00:31:00,70.0,61.0,30.06,North,0,0.0,-999.0,73,-99.99,,,-99.99,,2013-06-29 05:31:00,
2013-06-29 00:41:00,70.0,61.0,30.06,North,0,0.0,-999.0,73,-99.99,,,-99.99,,2013-06-29 05:41:00,
2013-06-29 00:51:00,70.0,61.0,30.06,NNE,25,3.0,-999.0,73,-99.99,,,-99.99,,2013-06-29 05:51:00,
2013-06-29 01:01:00,68.0,61.0,30.06,North,0,0.0,-999.0,77,-99.99,,,-99.99,,2013-06-29 06:01:00,
2013-06-29 01:12:00,68.0,61.0,30.06,North,0,0.0,-999.0,77,-99.99,,,-99.99,,2013-06-29 06:12:00,
2013-06-29 01:22:00,68.0,61.0,30.06,North,0,0.0,-999.0,77,-99.99,,,-99.99,,2013-06-29 06:22:00,
2013-06-29 01:33:00,68.0,61.0,30.06,North,0,0.0,-999.0,77,-99.99,,,-99.99,,2013-06-29 06:33:00,
2013-06-29 01:43:00,68.0,61.0,30.05,North,0,0.0,-999.0,77,-99.99,,,-99.99,,2013-06-29 06:43:00,
2013-06-29 01:53:00,68.0,61.0,30.05,North,0,0.0,-999.0,77,-99.99,,,-99.99,,2013-06-29 06:53:00,
2013-06-29 02:02:00,68.0,61.0,30.05,North,0,0.0,-999.0,77,-99.99,,,-99.99,,2013-06-29 07:02:00,
2013-06-29 02:12:00,68.0,61.0,30.06,North,0,0.0,-999.0,77,-99.99,,,-99.99,,2013-06-29 07:12:00,
2013-06-29 02:22:00,68.0,61.0,30.05,North,0,0.0,-999.0,77,-99.99,,,-99.99,,2013-06-29 07:22:00,
2013-06-29 02:33:00,66.0,61.0,30.06,North,0,0.0,-999.0,82,-99.99,,,-99.99,,2013-06-29 07:33:00,
2013-06-29 02:43:00,66.0,61.0,30.06,North,0,0.0,-999.0,82,-99.99,,,-99.99,,2013-06-29 07:43:00,
2013-06-29 02:53:00,66.0,61.0,30.05,North,0,0.0,-999.0,82,-99.99,,,-99.99,,2013-06-29 07:53:00,
2013-06-29 03:01:00,66.0,63.0,30.05,North,0,0.0,-999.0,88,-99.99,,,-99.99,,2013-06-29 08:01:00,
2013-06-29 03:11:00,66.0,61.0,30.05,North,0,0.0,-999.0,82,-99.99,,,-99.99,,2013-06-29 08:11:00,
2013-06-29 03:22:00,66.0,61.0,30.06,North,0,0.0,-999.0,82,-99.99,,,-99.99,,2013-06-29 08:22:00,
2013-06-29 03:33:00,66.0,61.0,30.06,North,0,0.0,-999.0,82,-99.99,,,-99.99,,2013-06-29 08:33:00,
2013-06-29 03:43:00,66.0,63.0,30.06,North,0,0.0,-999.0,88,-99.99,,,-99.99,,2013-06-29 08:43:00,
2013-06-29 03:52:00,66.0,63.0,30.06,North,0,0.0,-999.0,88,-99.99,,,-99.99,,2013-06-29 08:52:00,
2013-06-29 04:02:00,64.0,61.0,30.06,North,0,0.0,-999.0,88,-99.99,,,-99.99,,2013-06-29 09:02:00,
2013-06-29 04:12:00,64.0,63.0,30.06,North,0,0.0,-999.0,93,-99.99,,,-99.99,,2013-06-29 09:12:00,
2013-06-29 04:33:00,64.0,61.0,30.06,North,0,0.0,-999.0,88,-99.99,,,-99.99,,2013-06-29 09:33:00,
2013-06-29 04:42:00,64.0,61.0,30.07,North,0,0.0,-999.0,88,-99.99,,,-99.99,,2013-06-29 09:42:00,
2013-06-29 04:53:00,64.0,63.0,30.07,North,0,0.0,-999.0,93,-99.99,,,-99.99,,2013-06-29 09:53:00,
2013-06-29 05:01:00,64.0,63.0,30.06,North,0,0.0,-999.0,93,-99.99,,,-99.99,,2013-06-29 10:01:00,
2013-06-29 05:11:00,64.0,63.0,30.06,NNW,334,3.0,-999.0,93,-99.99,,,-99.99,,2013-06-29 10:11:00,
2013-06-29 05:22:00,64.0,63.0,30.06,North,0,5.0,-999.0,93,-99.99,,,-99.99,,2013-06-29 10:22:00,
2013-06-29 05:33:00,64.0,63.0,30.07,North,0,0.0,-999.0,93,-99.99,,,-99.99,,2013-06-29 10:33:00,
2013-06-29 05:43:00,64.0,63.0,30.07,North,0,3.0,-999.0,93,-99.99,,,-99.99,,2013-06-29 10:43:00,
2013-06-29 05:52:00,64.0,63.0,30.07,North,0,0.0,-999.0,93,-99.99,,,-99.99,,2013-06-29 10:52:00,
2013-06-29 06:01:00,64.0,63.0,30.07,NW,315,3.0,-999.0,93,-99.99,,,-99.99,,2013-06-29 11:01:00,
2013-06-29 06:11:00,64.0,63.0,30.07,ENE,69,5.0,-999.0,93,-99.99,,,-99.99,,2013-06-29 11:11:00,
2013-06-29 06:23:00,64.0,63.0,30.07,North,0,0.0,-999.0,93,-99.99,,,-99.99,,2013-06-29 11:23:00,
2013-06-29 06:33:00,64.0,63.0,30.08,North,0,0.0,-999.0,93,-99.99,,,-99.99,,2013-06-29 11:33:00,
2013-06-29 06:43:00,64.0,63.0,30.08,North,0,6.0,-999.0,93,-99.99,,,-99.99,,2013-06-29 11:43:00,
2013-06-29 06:53:00,64.0,63.0,30.08,North,0,5.0,-999.0,93,-99.99,,,-99.99,,2013-06-29 11:53:00,
2013-06-29 07:02:00,64.0,63.0,30.08,North,0,0.0,-999.0,93,-99.99,,,-99.99,,2013-06-29 12:02:00,
2013-06-29 07:12:00,64.0,63.0,30.08,NNE,25,3.0,-999.0,93,-99.99,,,-99.99,,2013-06-29 12:12:00,
2013-06-29 07:22:00,64.0,64.0,30.08,NNE,25,3.0,-999.0,100,-99.99,,,-99.99,,2013-06-29 12:22:00,
2013-06-29 07:34:00,64.0,63.0,30.08,NW,315,7.0,-999.0,93,-99.99,,,-99.99,,2013-06-29 12:34:00,
2013-06-29 07:43:00,64.0,63.0,30.08,North,0,0.0,-999.0,93,-99.99,,,-99.99,,2013-06-29 12:43:00,
2013-06-29 07:52:00,66.0,64.0,30.08,North,0,5.0,-999.0,93,-99.99,,,-99.99,,2013-06-29 12:52:00,
2013-06-29 08:02:00,66.0,64.0,30.08,NNE,25,3.0,-999.0,93,-99.99,,,-99.99,,2013-06-29 13:02:00,
2013-06-29 08:11:00,66.0,64.0,30.08,NNE,25,3.0,-999.0,93,-99.99,,,-99.99,,2013-06-29 13:11:00,
2013-06-29 08:34:00,66.0,64.0,30.08,NNE,24,9.0,-999.0,93,-99.99,,,-99.99,,2013-06-29 13:34:00,
2013-06-29 08:43:00,68.0,64.0,30.08,NNW,335,6.0,-999.0,88,-99.99,,,-99.99,,2013-06-29 13:43:00,
2013-06-29 08:53:00,68.0,64.0,30.08,North,0,5.0,-999.0,88,-99.99,,,-99.99,,2013-06-29 13:53:00,
2013-06-29 09:02:00,70.0,64.0,30.08,North,0,7.0,-999.0,82,-99.99,,,-99.99,,2013-06-29 14:02:00,
2013-06-29 09:12:00,70.0,64.0,30.08,NNW,334,12.0,-999.0,82,-99.99,,,-99.99,,2013-06-29 14:12:00,
2013-06-29 09:23:00,70.0,64.0,30.08,NNE,24,10.0,-999.0,82,-99.99,,,-99.99,,2013-06-29 14:23:00,
2013-06-29 09:33:00,70.0,64.0,30.08,North,0,5.0,-999.0,82,-99.99,,,-99.99,,2013-06-29 14:33:00,
2013-06-29 09:44:00,70.0,64.0,30.08,North,0,8.0,-999.0,82,-99.99,,,-99.99,,2013-06-29 14:44:00,
2013-06-29 09:53:00,70.0,64.0,30.08,NNW,335,10.0,-999.0,82,-99.99,,,-99.99,,2013-06-29 14:53:00,
2013-06-29 10:01:00,70.0,64.0,30.08,North,0,7.0,-999.0,82,-99.99,,,-99.99,,2013-06-29 15:01:00,
2013-06-29 10:11:00,70.0,64.0,30.09,NE,45,15.0,-999.0,82,-99.99,,,-99.99,,2013-06-29 15:11:00,
2013-06-29 10:22:00,70.0,64.0,30.09,NNE,24,10.0,-999.0,82,-99.99,,,-99.99,,2013-06-29 15:22:00,
2013-06-29 10:33:00,72.0,64.0,30.09,North,0,12.0,-999.0,78,-99.99,,,-99.99,,2013-06-29 15:33:00,
2013-06-29 10:42:00,70.0,63.0,30.10,NNE,24,9.0,-999.0,77,-99.99,,,-99.99,,2013-06-29 15:42:00,
2013-06-29 10:53:00,70.0,64.0,30.10,NNE,25,12.0,-999.0,82,-99.99,,,-99.99,,2013-06-29 15:53:00,
2013-06-29 11:01:00,72.0,63.0,30.10,North,0,9.0,-999.0,73,-99.99,,,-99.99,,2013-06-29 16:01:00,
2013-06-29 11:12:00,70.0,63.0,30.10,NE,45,9.0,-999.0,77,-99.99,,,-99.99,,2013-06-29 16:12:00,
2013-06-29 11:22:00,72.0,63.0,30.10,NNW,335,10.0,-999.0,73,-99.99,,,-99.99,,2013-06-29 16:22:00,
2013-06-29 11:33:00,72.0,63.0,30.10,North,0,20.0,-999.0,73,-99.99,,,-99.99,,2013-06-29 16:33:00,
2013-06-29 11:43:00,72.0,63.0,30.10,North,0,15.0,-999.0,73,-99.99,,,-99.99,,2013-06-29 16:43:00,
2013-06-29 11:53:00,72.0,63.0,30.10,NE,45,13.0,-999.0,73,-99.99,,,-99.99,,2013-06-29 16:53:00,
2013-06-29 12:01:00,72.0,63.0,30.10,NNE,25,17.0,-999.0,73,-99.99,,,-99.99,,2013-06-29 17:01:00,
2013-06-29 12:12:00,73.0,63.0,30.10,North,0,14.0,-999.0,68,-99.99,,,-99.99,,2013-06-29 17:12:00,
2013-06-29 12:22:00,73.0,63.0,30.10,NNE,25,12.0,-999.0,68,-99.99,,,-99.99,,2013-06-29 17:22:00,
2013-06-29 12:33:00,73.0,61.0,30.10,North,0,16.0,-999.0,64,-99.99,,,-99.99,,2013-06-29 17:33:00,
2013-06-29 12:42:00,73.0,63.0,30.10,North,0,18.0,-999.0,68,-99.99,,,-99.99,,2013-06-29 17:42:00,
2013-06-29 12:52:00,73.0,59.0,30.10,North,0,20.0,-999.0,60,-99.99,,,-99.99,,2013-06-29 17:52:00,
2013-06-29 13:01:00,73.0,59.0,30.11,NNE,24,18.0,-999.0,60,-99.99,,,-99.99,,2013-06-29 18:01:00,
2013-06-29 13:12:00,73.0,59.0,30.10,North,0,21.0,-999.0,60,-99.99,,,-99.99,,2013-06-29 18:12:00,
2013-06-29 13:22:00,73.0,59.0,30.10,NNE,25,12.0,-999.0,60,-99.99,,,-99.99,,2013-06-29 18:22:00,
2013-06-29 13:34:00,75.0,61.0,30.10,NNE,25,16.0,-999.0,60,-99.99,,,-99.99,,2013-06-29 18:34:00,
2013-06-29 13:43:00,75.0,59.0,30.11,NNE,25,8.0,-999.0,57,-99.99,,,-99.99,,2013-06-29 18:43:00,
2013-06-29 13:52:00,75.0,59.0,30.11,North,0,13.0,-999.0,57,-99.99,,,-99.99,,2013-06-29 18:52:00,
2013-06-29 14:01:00,75.0,59.0,30.10,North,0,16.0,-999.0,57,-99.99,,,-99.99,,2013-06-29 19:01:00,
2013-06-29 14:12:00,75.0,59.0,30.11,North,0,12.0,-999.0,57,-99.99,,,-99.99,,2013-06-29 19:12:00,
2013-06-29 14:22:00,75.0,59.0,30.10,NE,45,7.0,-999.0,57,-99.99,,,-99.99,,2013-06-29 19:22:00,
2013-06-29 14:34:00,75.0,57.0,30.10,NNE,24,10.0,-999.0,53,-99.99,,,-99.99,,2013-06-29 19:34:00,
2013-06-29 14:43:00,75.0,59.0,30.10,NNE,25,8.0,-999.0,57,-99.99,,,-99.99,,2013-06-29 19:43:00,
2013-06-29 14:54:00,75.0,57.0,30.11,NE,45,9.0,-999.0,53,-99.99,,,-99.99,,2013-06-29 19:54:00,
2013-06-29 15:01:00,75.0,57.0,30.10,North,0,17.0,-999.0,53,-99.99,,,-99.99,,2013-06-29 20:01:00,
2013-06-29 15:11:00,75.0,57.0,30.11,North,0,9.0,-999.0,53,-99.99,,,-99.99,,2013-06-29 20:11:00,
2013-06-29 15:23:00,75.0,57.0,30.11,NE,45,10.0,-999.0,53,-99.99,,,-99.99,,2013-06-29 20:23:00,
2013-06-29 15:33:00,75.0,59.0,30.11,NNE,24,9.0,-999.0,57,-99.99,,,-99.99,,2013-06-29 20:33:00,
2013-06-29 15:43:00,75.0,57.0,30.11,NNE,24,10.0,-999.0,53,-99.99,,,-99.99,,2013-06-29 20:43:00,
2013-06-29 15:52:00,75.0,57.0,30.11,NNE,25,8.0,-999.0,53,-99.99,,,-99.99,,2013-06-29 20:52:00,
2013-06-29 16:01:00,75.0,57.0,30.11,NE,45,12.0,-999.0,53,-99.99,,,-99.99,,2013-06-29 21:01:00,
2013-06-29 16:11:00,75.0,57.0,30.11,North,0,10.0,-999.0,53,-99.99,,,-99.99,,2013-06-29 21:11:00,
2013-06-29 16:22:00,75.0,57.0,30.11,North,0,6.0,-999.0,53,-99.99,,,-99.99,,2013-06-29 21:22:00,
2013-06-29 16:32:00,75.0,59.0,30.10,NE,45,7.0,-999.0,57,-99.99,,,-99.99,,2013-06-29 21:32:00,
2013-06-29 16:42:00,75.0,59.0,30.11,NNE,25,12.0,-999.0,57,-99.99,,,-99.99,,2013-06-29 21:42:00,
2013-06-29 16:52:00,75.0,59.0,30.10,NNE,24,6.0,-999.0,57,-99.99,,,-99.99,,2013-06-29 21:52:00,
2013-06-29 17:01:00,77.0,57.0,30.10,North,0,10.0,-999.0,50,-99.99,,,-99.99,,2013-06-29 22:01:00,
2013-06-29 17:11:00,77.0,57.0,30.10,North,0,12.0,-999.0,50,-99.99,,,-99.99,,2013-06-29 22:11:00,
2013-06-29 17:21:00,77.0,57.0,30.10,NE,45,7.0,-999.0,50,-99.99,,,-99.99,,2013-06-29 22:21:00,
2013-06-29 17:33:00,77.0,57.0,30.10,NNE,24,9.0,-999.0,50,-99.99,,,-99.99,,2013-06-29 22:33:00,
2013-06-29 17:43:00,77.0,57.0,30.09,North,0,0.0,-999.0,50,-99.99,,,-99.99,,2013-06-29 22:43:00,
2013-06-29 17:53:00,77.0,57.0,30.10,North,0,0.0,-999.0,50,-99.99,,,-99.99,,2013-06-29 22:53:00,
2013-06-29 18:02:00,77.0,57.0,30.09,North,0,9.0,-999.0,50,-99.99,,,-99.99,,2013-06-29 23:02:00,
2013-06-29 18:12:00,77.0,55.0,30.10,NE,45,7.0,-999.0,47,-99.99,,,-99.99,,2013-06-29 23:12:00,
2013-06-29 18:23:00,77.0,55.0,30.09,NE,45,6.0,-999.0,47,-99.99,,,-99.99,,2013-06-29 23:23:00,
2013-06-29 18:34:00,77.0,55.0,30.09,NNE,24,6.0,-999.0,47,-99.99,,,-99.99,,2013-06-29 23:34:00,
2013-06-29 18:43:00,77.0,55.0,30.09,NNE,25,13.0,-999.0,47,-99.99,,,-99.99,,2013-06-29 23:43:00,
2013-06-29 18:52:00,77.0,55.0,30.09,North,0,12.0,-999.0,47,-99.99,,,-99.99,,2013-06-29 23:52:00,
2013-06-29 19:02:00,77.0,57.0,30.09,North,0,15.0,-999.0,50,-99.99,,,-99.99,,2013-06-30 00:02:00,
2013-06-29 19:11:00,77.0,55.0,30.09,NNE,25,7.0,-999.0,47,-99.99,,,-99.99,,2013-06-30 00:11:00,
2013-06-29 19:22:00,77.0,55.0,30.09,NNE,25,8.0,-999.0,47,-99.99,,,-99.99,,2013-06-30 00:22:00,
2013-06-29 19:33:00,77.0,57.0,30.09,NE,45,5.0,-999.0,50,-99.99,,,-99.99,,2013-06-30 00:33:00,
2013-06-29 19:43:00,77.0,57.0,30.10,NE,45,6.0,-999.0,50,-99.99,,,-99.99,,2013-06-30 00:43:00,
2013-06-29 19:52:00,77.0,57.0,30.10,NNE,25,3.0,-999.0,50,-99.99,,,-99.99,,2013-06-30 00:52:00,
2013-06-29 20:01:00,75.0,57.0,30.10,North,0,12.0,-999.0,53,-99.99,,,-99.99,,2013-06-30 01:01:00,
2013-06-29 20:11:00,75.0,57.0,30.10,NE,45,8.0,-999.0,53,-99.99,,,-99.99,,2013-06-30 01:11:00,
2013-06-29 20:22:00,75.0,57.0,30.10,North,0,12.0,-999.0,53,-99.99,,,-99.99,,2013-06-30 01:22:00,
2013-06-29 20:33:00,75.0,57.0,30.10,North,0,9.0,-999.0,53,-99.99,,,-99.99,,2013-06-30 01:33:00,
2013-06-29 20:44:00,75.0,57.0,30.10,NE,45,5.0,-999.0,53,-99.99,,,-99.99,,2013-06-30 01:44:00,
2013-06-29 20:53:00,75.0,59.0,30.10,NNE,25,7.0,-999.0,57,-99.99,,,-99.99,,2013-06-30 01:53:00,
2013-06-29 21:02:00,75.0,61.0,30.10,North,0,0.0,-999.0,60,-99.99,,,-99.99,,2013-06-30 02:02:00,
2013-06-29 21:11:00,75.0,61.0,30.11,NNE,24,9.0,-999.0,60,-99.99,,,-99.99,,2013-06-30 02:11:00,
2013-06-29 21:23:00,73.0,61.0,30.11,ENE,69,3.0,-999.0,64,-99.99,,,-99.99,,2013-06-30 02:23:00,
2013-06-29 21:33:00,73.0,59.0,30.11,NE,45,6.0,-999.0,60,-99.99,,,-99.99,,2013-06-30 02:33:00,
2013-06-29 21:43:00,72.0,57.0,30.11,North,0,0.0,-999.0,60,-99.99,,,-99.99,,2013-06-30 02:43:00,
2013-06-29 21:53:00,72.0,59.0,30.12,North,0,0.0,-999.0,64,-99.99,,,-99.99,,2013-06-30 02:53:00,
2013-06-29 22:01:00,72.0,59.0,30.12,NE,45,6.0,-999.0,64,-99.99,,,-99.99,,2013-06-30 03:01:00,
2013-06-29 22:11:00,70.0,59.0,30.12,North,0,0.0,-999.0,68,-99.99,,,-99.99,,2013-06-30 03:11:00,
2013-06-29 22:23:00,70.0,59.0,30.13,North,0,0.0,-999.0,68,-99.99,,,-99.99,,2013-06-30 03:23:00,
2013-06-29 22:33:00,70.0,59.0,30.13,North,0,0.0,-999.0,68,-99.99,,,-99.99,,2013-06-30 03:33:00,
2013-06-29 22:43:00,68.0,61.0,30.13,North,0,0.0,-999.0,77,-99.99,,,-99.99,,2013-06-30 03:43:00,
2013-06-29 22:53:00,68.0,59.0,30.14,North,0,0.0,-999.0,72,-99.99,,,-99.99,,2013-06-30 03:53:00,
2013-06-29 23:01:00,68.0,59.0,30.14,North,0,0.0,-999.0,72,-99.99,,,-99.99,,2013-06-30 04:01:00,
2013-06-29 23:12:00,68.0,59.0,30.14,North,0,0.0,-999.0,72,-99.99,,,-99.99,,2013-06-30 04:12:00,
2013-06-29 23:22:00,68.0,59.0,30.14,North,0,0.0,-999.0,72,-99.99,,,-99.99,,2013-06-30 04:22:00,
2013-06-29 23:33:00,68.0,59.0,30.15,North,0,3.0,-999.0,72,-99.99,,,-99.99,,2013-06-30 04:33:00,
2013-06-29 23:43:00,68.0,57.0,30.15,ENE,69,3.0,-999.0,68,-99.99,,,-99.99,,2013-06-30 04:43:00,
2013-06-29 23:53:00,68.0,57.0,30.15,North,0,0.0,-999.0,68,-99.99,,,-99.99,,2013-06-30 04:53:00,